This is the latest recevied weather packets stored in our database for station/object N7BTW-13. If no packets are shown the sender has not sent any weather packets the latest 10 day(s).
| Time | Temp. | Humidity | Pressure | Rain* | Wind** | Luminosity | Snow |
|---|---|---|---|---|---|---|---|
| 1788579608 | 12.78° C | 93% | - | 0 mm | - | - | - |
| 1788579007 | 12.78° C | 92% | - | 0 mm | - | - | - |
| 1788578408 | 13.33° C | 94% | - | 0 mm | - | - | - |
| 1788577807 | 13.89° C | 95% | - | 0 mm | - | - | - |
| 1788577207 | 14.44° C | 94% | - | 0 mm | - | - | - |
| 1788576607 | 15° C | 92% | - | 0 mm | - | - | - |
| 1788576007 | 16.11° C | 87% | - | 0 mm | - | - | - |
| 1788575406 | 16.67° C | 84% | - | 0 mm | - | - | - |
| 1788574806 | 16.67° C | 86% | - | 0 mm | - | - | - |
| 1788574205 | 16.67° C | 84% | - | 0 mm | - | - | - |
| 1788573609 | 17.78° C | 79% | - | 0 mm | - | - | - |
| 1788573006 | 17.22° C | 78% | - | 0 mm | - | - | - |
| 1788572406 | 17.22° C | 83% | - | 0 mm | - | - | - |
| 1788571808 | 17.22° C | 86% | - | 0 mm | - | - | - |
| 1788571206 | 16.67° C | 86% | - | 0 mm | - | - | - |
| 1788570634 | 17.22° C | 85% | - | 0 mm | - | - | - |
| 1788570008 | 16.67° C | 85% | - | 0 mm | - | - | - |
| 1788569409 | 16.67° C | 85% | - | 0 mm | - | - | - |
| 1788568808 | 17.22° C | 86% | - | 0.51 mm | - | - | - |
| 1788568207 | 16.67° C | 90% | - | 0.51 mm | - | - | - |
| 1788567606 | 16.11° C | 91% | - | 0.51 mm | - | - | - |
| 1788567006 | 15.56° C | 93% | - | 0.51 mm | - | - | - |
| 1788566407 | 15.56° C | 92% | - | 0.51 mm | - | - | - |
| 1788565807 | 16.67° C | 87% | - | 0.51 mm | - | - | - |
| 1788565206 | 17.78° C | 81% | - | 0 mm | - | - | - |
* Rain latest hour (hover to see other rain measurements)
** Current wind speed in m/s (hover to see current wind gust speed)